Paris / Charles De Gaulle, France

7:11 PM CET on November 18, 2017 (GMT +0100)
Charles de Gaulle

Weather History for LFPG - August, 2013

Change the Weather History Date:

Monday, August 19, 2013

  Actual Average Record
Temperature  
Mean Temperature 65 °F -  
Max Temperature 71 °F 71 °F 98 °F (2012)
Min Temperature 59 °F 54 °F 52 °F (2014)
Growing Degree Days 15 (Base 50)    
Moisture  
Dew Point 54 °F    
Average Humidity 71    
Maximum Humidity 100    
Minimum Humidity 38    
Precipitation  
Precipitation 0.00 in - - ()
Sea Level Pressure  
Sea Level Pressure 30.11 in    
Wind  
Wind Speed 6 mph ()    
Max Wind Speed 17 mph    
Max Gust Speed -    
Visibility 5.9 miles    
Events Fog    
Averages and records for this station are not official NWS values.
T = Trace of Precipitation, MM = Missing Value Source: Averaged Metar Reports

Daily Weather History Graph

Daily Weather History Graph

Search for Another Location

Airport or City:

Trip Planner

Search our weather history database for the weather conditions in past years. The results will help you decide how hot, cold, wet, or windy it might be!

Date:

Astronomy

Aug. 19, 2013 Rise Set
Actual Time 6:47 AM CEST 8:58 PM CEST
Civil Twilight 6:13 AM CEST 9:32 PM CEST
Nautical Twilight 5:30 AM CEST 10:15 PM CEST
Astronomical Twilight 4:41 AM CEST 11:03 PM CEST
Moon 7:39 PM CEST (8/19) 4:44 AM CEST (8/19)
Length of Visible Light 15h 19m
Length of Day
14h 10m
Waxing Gibbous, 96% of the Moon is Illuminated
Aug 19
Waxing Gibbous
Aug 21
Full
Aug 28
Last Quarter
Sep 5
New
Sep 12
First Quarter

Hourly Weather History & Observations

Time (CEST) Temp. Dew Point Humidity Pressure Visibility Wind Dir Wind Speed Gust Speed Precip Events Conditions
12:00 AM 64.4 °F 60.8 °F 88% 29.95 in - SSW 4.6 mph - N/A   Clear
12:30 AM 62.6 °F 60.8 °F 94% 29.95 in 6.2 mi SSW 5.8 mph - N/A   Mostly Cloudy
1:00 AM 62.6 °F 60.8 °F 94% 29.95 in 6.2 mi SSW 3.5 mph - N/A Fog Patches of Fog
1:30 AM 64.4 °F 62.6 °F 94% 29.98 in 5.6 mi WSW 3.5 mph - N/A   Unknown
2:00 AM 64.4 °F 62.6 °F 94% 29.98 in 5.6 mi WSW 3.5 mph - N/A   Unknown
2:30 AM 62.6 °F 62.6 °F 100% 29.98 in 5.6 mi Calm Calm - N/A   Unknown
3:00 AM 62.6 °F 60.8 °F 94% 29.98 in 1.2 mi NNW 2.3 mph - N/A Fog Patches of Fog
3:30 AM 62.6 °F 60.8 °F 94% 29.98 in 6.2 mi Variable 3.5 mph - N/A Fog Patches of Fog
4:00 AM 62.6 °F 60.8 °F 94% 29.98 in 4.3 mi NNW 3.5 mph - N/A   Mostly Cloudy
4:30 AM 62.6 °F 60.8 °F 94% 29.98 in 6.2 mi NW 4.6 mph - N/A   Mostly Cloudy
5:00 AM 62.6 °F 60.8 °F 94% 29.98 in 6.2 mi NW 6.9 mph - N/A   Mostly Cloudy
5:30 AM 60.8 °F 59.0 °F 94% 30.01 in 6.2 mi NNW 4.6 mph - N/A   Mostly Cloudy
6:00 AM 60.8 °F 59.0 °F 94% 30.01 in 6.2 mi NW 5.8 mph - N/A   Mostly Cloudy
6:30 AM 59.0 °F 57.2 °F 94% 30.01 in - NW 4.6 mph - N/A   Clear
7:00 AM 59.0 °F 57.2 °F 94% 30.01 in - WSW 3.5 mph - N/A   Clear
7:30 AM 59.0 °F 57.2 °F 94% 30.04 in 6.2 mi WSW 4.6 mph - N/A   Partly Cloudy
8:00 AM 59.0 °F 57.2 °F 94% 30.04 in 6.2 mi NW 4.6 mph - N/A   Partly Cloudy
8:30 AM 60.8 °F 57.2 °F 88% 30.04 in 6.2 mi West 5.8 mph - N/A   Partly Cloudy
9:00 AM 62.6 °F 59.0 °F 88% 30.06 in 6.2 mi WNW 9.2 mph - N/A   Scattered Clouds
9:30 AM 62.6 °F 59.0 °F 88% 30.06 in 6.2 mi West 11.5 mph - N/A   Partly Cloudy
10:00 AM 64.4 °F 57.2 °F 77% 30.09 in 6.2 mi West 11.5 mph - N/A   Scattered Clouds
10:30 AM 64.4 °F 57.2 °F 77% 30.09 in 6.2 mi West 12.7 mph - N/A   Scattered Clouds
11:00 AM 66.2 °F 57.2 °F 73% 30.09 in 6.2 mi West 10.4 mph - N/A   Scattered Clouds
11:30 AM 66.2 °F 55.4 °F 68% 30.12 in 6.2 mi WNW 10.4 mph - N/A   Mostly Cloudy
12:00 PM 68.0 °F 55.4 °F 64% 30.12 in 6.2 mi West 11.5 mph - N/A   Mostly Cloudy
12:30 PM 68.0 °F 57.2 °F 68% 30.12 in 6.2 mi West 11.5 mph - N/A   Scattered Clouds
1:00 PM 69.8 °F 57.2 °F 64% 30.12 in 6.2 mi West 10.4 mph - N/A   Scattered Clouds
1:30 PM 69.8 °F 57.2 °F 64% 30.12 in 6.2 mi WNW 11.5 mph - N/A   Mostly Cloudy
2:00 PM 69.8 °F 53.6 °F 56% 30.15 in 6.2 mi WNW 11.5 mph - N/A   Scattered Clouds
2:30 PM 71.6 °F 53.6 °F 53% 30.15 in 6.2 mi NW 12.7 mph - N/A   Mostly Cloudy
3:00 PM 69.8 °F 53.6 °F 56% 30.15 in 6.2 mi NNW 17.3 mph - N/A   Scattered Clouds
3:30 PM 69.8 °F 51.8 °F 53% 30.18 in 6.2 mi NW 12.7 mph - N/A   Scattered Clouds
4:00 PM 69.8 °F 53.6 °F 56% 30.18 in 6.2 mi NW 12.7 mph - N/A   Scattered Clouds
4:30 PM 69.8 °F 50.0 °F 49% 30.18 in 6.2 mi NW 12.7 mph - N/A   Scattered Clouds
5:00 PM 71.6 °F 50.0 °F 46% 30.18 in 6.2 mi NW 15.0 mph - N/A   Scattered Clouds
5:30 PM 71.6 °F 48.2 °F 43% 30.18 in 6.2 mi NNW 13.8 mph - N/A   Scattered Clouds
6:00 PM 71.6 °F 46.4 °F 41% 30.21 in - NW 11.5 mph - N/A   Clear
6:30 PM 69.8 °F 44.6 °F 40% 30.21 in - NNW 12.7 mph - N/A   Clear
7:00 PM 69.8 °F 42.8 °F 38% 30.21 in - NNW 13.8 mph - N/A   Clear
7:30 PM 69.8 °F 42.8 °F 38% 30.24 in - NNW 12.7 mph - N/A   Clear
8:00 PM 68.0 °F 44.6 °F 43% 30.24 in - NNW 10.4 mph - N/A   Clear
8:30 PM 68.0 °F 44.6 °F 43% 30.24 in - NNW 9.2 mph - N/A   Clear
9:00 PM 64.4 °F 46.4 °F 52% 30.27 in - NNW 5.8 mph - N/A   Clear
9:30 PM 62.6 °F 46.4 °F 55% 30.27 in - NW 5.8 mph - N/A   Clear
10:00 PM 62.6 °F 46.4 °F 55% 30.30 in - NNW 5.8 mph - N/A   Clear
10:30 PM 62.6 °F 46.4 °F 55% 30.30 in - Variable 3.5 mph - N/A   Clear
11:00 PM 60.8 °F 46.4 °F 59% 30.30 in - Calm Calm - N/A   Clear
11:30 PM 60.8 °F 46.4 °F 59% 30.33 in - WNW 3.5 mph - N/A   Clear